Zurück zum Katalog

COSMOS 374 DEB

AktivUNKNOWN
NORAD 4823·DEBRIS·🇷🇺 Russia

Gestartet Oct 23, 1970 von Baikonur Cosmodrome

Loading…

Nächste Überflüge (nächste 24 Stunden)

TLE

AktuellSource: Space-Track

Epoche: Sep 14, 2026, 09:04 UTC

1 04823U 70089T   26257.37808855 -.00000035  00000-0  36019-4 0  9999
2 04823  63.0181  41.9079 0945547  28.1313 336.7586 12.66351529547914

Verfolge COSMOS 374 DEB in Echtzeit mit AllMySat

Download on the App Store